Wind_Speed
12 13 13 13 13 13 13 13 13 13 13 14 15 15 14 15 16 17 18 18 18 20 20 19 19 19 19 19 20 20 20 20 20 20 21 20 21 22
14 14 14 14 14 14 14 15 15 15 15 15 15 15 15 16 16 17 18 18 18 18 18 18 18 18 19 19 19 20 20 20 21 21 21 21 21 22
14 14 14 14 15 15 15 15 15 15 15 15 15 16 16 16 17 17 18 18 18 18 18 18 18 19 19 19 19 19 20 20 21 21 22 21 21 21
14 14 14 14 15 15 15 15 16 16 16 16 16 17 17 17 17 18 18 18 18 18 18 19 19 18 19 18 19 19 20 20 20 21 21 22 22 23
15 15 15 16 16 15 16 17 17 16 17 17 17 18 18 18 18 18 19 18 18 18 18 19 18 18 18 19 19 19 20 20 20 21 21 21 22 22
15 15 15 16 16 16 16 17 17 17 17 18 18 18 18 18 19 19 19 19 19 19 19 19 19 19 19 19 19 19 20 20 20 21 21 22 23 23
15 15 15 16 16 16 16 17 17 18 18 18 18 19 19 20 19 19 20 20 19 19 20 20 19 19 19 19 19 20 20 20 21 22 22 22 23 23
16 16 16 16 16 17 17 17 17 17 18 18 19 19 20 20 20 19 20 20 20 20 19 19 20 20 20 20 20 20 21 21 21 22 23 23 23 23
16 16 16 16 17 17 18 17 17 17 18 18 19 19 19 20 20 20 20 20 20 20 20 20 20 20 20 20 20 20 21 21 21 22 22 23 23 24
16 16 16 16 17 18 18 18 18 18 19 19 20 20 20 21 21 20 20 20 21 21 20 21 21 21 21 21 20 21 21 21 21 22 22 23 24 25
17 17 16 16 17 18 19 19 19 20 20 20 20 20 21 21 21 21 21 21 21 21 21 21 21 20 20 20 20 21 21 21 22 22 23 24 24 24
18 17 16 17 18 18 19 19 20 20 20 21 21 21 21 21 21 21 22 21 21 22 22 22 22 21 21 21 21 21 21 22 22 23 24 24 25 25
18 19 18 18 18 19 20 20 20 20 21 21 22 21 21 21 21 22 22 22 22 22 22 22 22 22 22 22 23 23 23 23 24 24 25 26 26 27
20 20 20 19 19 20 20 21 21 22 22 22 22 22 22 22 22 22 22 22 22 22 22 23 23 24 24 24 24 25 25 25 25 26 26 27 28 28
21 21 21 21 21 21 22 22 22 23 23 23 23 22 22 23 23 23 23 23 23 23 23 24 24 25 25 25 25 25 26 27 27 28 28 28 28 28
21 21 22 22 22 22 23 23 23 23 23 23 23 23 23 23 24 24 24 25 25 25 25 25 25 26 26 27 27 27 27 28 28 28 27 27 27 27
22 22 22 22 22 23 23 23 23 23 23 24 24 24 24 25 25 25 25 26 26 26 26 26 26 27 27 27 27 27 27 27 27 27 27 27 27 27
23 23 23 23 23 23 23 24 23 23 24 25 25 25 25 26 26 26 25 25 25 25 25 26 27 27 27 27 27 27 28 28 28 28 27 27 27 27
24 25 24 24 24 25 25 25 25 25 26 26 26 26 26 25 25 26 26 26 26 25 26 26 26 26 26 26 26 26 27 28 27 27 27 27 27 27
25 26 26 26 26 26 26 25 26 26 26 26 26 26 25 25 25 25 25 26 26 26 26 26 26 27 27 26 26 26 27 28 27 27 27 26 26 26
26 26 27 27 27 27 27 27 26 26 26 26 26 26 25 25 25 24 25 25 26 26 26 26 26 26 26 26 25 26 26 26 25 25 25 25 24 24
28 28 28 28 28 28 28 27 27 26 26 25 25 25 25 25 25 25 25 25 25 25 26 26 26 26 26 26 26 25 24 24 24 24 24 24 24 23
29 29 29 29 29 28 28 27 27 26 26 25 25 25 25 26 26 25 25 25 25 25 25 26 26 26 26 26 26 25 24 24 23 23 24 23 23 22
Wind_Direction
267 268 270 274 277 276 277 275 274 274 278 278 277 279 273 274 274 275 277 277 278 280 280 279 279 278 274 270 268 267 268 266 265 265 264 264 264 264
267 268 272 274 274 274 275 274 272 272 274 275 276 275 273 276 278 278 277 278 280 282 281 279 278 278 276 271 272 270 269 268 266 265 265 265 267 265
273 274 274 273 272 271 272 273 273 271 273 274 277 278 278 281 281 282 282 282 281 282 280 278 278 278 276 273 273 272 271 271 270 267 266 267 268 267
277 278 277 276 276 272 271 273 275 273 271 273 276 279 281 282 283 284 284 283 282 281 279 279 279 277 276 275 274 274 274 274 273 270 269 269 268 267
280 282 279 278 277 273 273 274 276 273 272 274 278 280 282 282 283 284 284 283 283 281 281 281 279 279 279 277 276 275 275 275 274 272 270 271 271 271
281 281 281 278 276 275 275 274 274 275 276 278 281 281 282 283 284 283 284 284 283 281 281 281 279 278 278 278 277 276 275 275 274 273 273 273 272 271
279 278 279 279 276 276 277 277 275 277 279 280 282 282 282 283 283 283 284 285 285 282 281 280 280 278 277 278 278 278 278 277 276 274 275 274 273 272
282 280 278 277 277 276 278 278 278 280 282 282 283 283 282 282 282 283 284 285 285 286 284 280 280 281 281 282 282 281 281 280 277 275 275 276 274 273
285 284 280 277 280 280 282 283 282 283 284 284 284 283 282 281 282 284 284 285 286 286 287 285 281 281 283 283 282 281 281 280 278 275 275 277 276 275
287 285 282 280 280 281 281 282 283 285 286 285 285 283 282 281 281 283 284 285 287 286 286 285 283 281 282 281 280 280 279 278 278 277 276 276 277 277
288 284 282 282 284 283 282 283 283 284 286 287 286 284 283 283 283 284 285 286 286 287 287 287 284 282 281 281 281 281 280 279 279 278 277 277 278 279
285 282 280 280 282 285 286 286 286 286 286 287 286 285 284 285 285 285 285 285 285 286 286 286 285 284 283 282 283 283 282 282 282 281 280 280 280 280
284 283 281 280 281 283 285 286 286 286 286 287 287 286 285 286 287 286 284 284 285 286 286 285 285 284 285 283 283 285 286 286 285 284 283 282 282 282
285 283 281 281 282 283 283 284 285 286 286 286 287 285 284 285 288 287 286 285 286 287 287 287 286 286 286 284 284 285 287 288 287 286 285 283 283 282
283 282 282 282 283 284 285 285 286 287 288 286 285 284 282 283 285 285 285 285 286 287 288 288 289 289 288 287 286 286 287 288 288 288 287 284 283 282
283 283 282 281 282 285 286 287 287 288 288 286 284 283 283 283 284 284 284 285 286 286 287 286 287 288 288 288 288 288 288 288 287 286 286 284 283 281
285 283 283 282 284 285 287 287 287 288 288 287 285 283 282 283 284 284 285 285 285 286 285 284 285 286 286 287 289 289 289 289 288 285 284 283 282 281
286 286 285 283 283 284 285 285 285 287 288 287 286 285 285 284 284 284 284 285 285 284 284 285 285 286 286 286 287 288 287 287 287 285 283 282 283 283
286 286 285 285 284 284 284 284 285 286 287 287 286 285 285 285 285 286 285 284 285 285 286 286 286 286 288 288 288 287 287 286 285 286 286 285 286 285
285 285 285 283 283 283 284 285 286 287 287 287 286 285 285 287 288 288 287 286 286 286 286 288 288 287 289 291 291 289 288 291 290 288 288 288 288 286
284 284 283 282 282 282 283 285 285 286 286 286 285 285 284 285 287 288 289 288 287 286 287 288 288 289 290 291 291 291 292 292 292 290 291 290 289 288
284 283 283 283 282 282 282 282 283 283 284 285 286 285 284 285 286 288 288 288 289 288 288 289 289 289 289 289 289 290 291 291 292 293 292 292 290 289
284 283 283 284 282 281 280 280 282 281 280 282 284 285 284 284 285 285 287 289 290 290 288 289 290 290 290 288 289 290 290 291 292 293 295 296 295 294
Height
5830 5830 5830 5829 5829 5829 5828 5828 5828 5828 5827 5826 5825 5824 5824 5823 5823 5822 5822 5821 5820 5818 5817 5815 5813 5812 5811 5812 5812 5812 5812 5813 5813 5813 5813 5813 5813 5812
5826 5826 5826 5826 5825 5825 5825 5824 5824 5824 5824 5823 5822 5821 5820 5819 5819 5818 5817 5816 5815 5814 5812 5810 5809 5807 5807 5807 5807 5807 5807 5807 5807 5807 5807 5807 5807 5806
5823 5823 5822 5822 5821 5821 5821 5820 5820 5820 5819 5819 5818 5817 5817 5816 5815 5814 5812 5811 5810 5809 5807 5806 5804 5803 5803 5802 5802 5802 5802 5802 5802 5802 5801 5801 5801 5800
5819 5819 5818 5818 5817 5816 5816 5816 5816 5815 5815 5815 5814 5813 5813 5812 5810 5809 5808 5807 5805 5804 5802 5801 5800 5799 5798 5798 5798 5798 5797 5797 5796 5796 5796 5795 5795 5794
5816 5815 5814 5814 5813 5812 5812 5812 5812 5811 5811 5811 5810 5809 5808 5807 5806 5805 5803 5802 5801 5799 5798 5796 5795 5794 5794 5793 5793 5793 5792 5792 5791 5790 5790 5789 5789 5788
5811 5811 5810 5809 5809 5808 5808 5808 5807 5807 5806 5806 5805 5804 5803 5802 5801 5800 5799 5797 5796 5794 5793 5792 5791 5790 5789 5789 5788 5788 5787 5786 5786 5785 5785 5784 5783 5783
5807 5806 5806 5805 5805 5804 5804 5803 5803 5802 5802 5801 5800 5799 5798 5798 5797 5795 5794 5793 5791 5790 5788 5787 5786 5785 5784 5784 5783 5783 5782 5781 5781 5780 5779 5778 5778 5777
5803 5802 5801 5801 5800 5800 5799 5799 5798 5797 5797 5796 5796 5794 5793 5793 5792 5790 5789 5788 5787 5785 5783 5782 5781 5780 5779 5779 5778 5777 5776 5776 5775 5774 5773 5773 5772 5771
5798 5797 5796 5796 5796 5796 5795 5794 5793 5793 5792 5791 5790 5789 5788 5788 5787 5785 5784 5783 5781 5780 5778 5777 5776 5775 5774 5773 5772 5771 5770 5770 5769 5768 5767 5766 5766 5765
5794 5793 5792 5792 5791 5791 5790 5790 5789 5788 5787 5786 5785 5784 5783 5782 5781 5780 5778 5777 5776 5774 5773 5772 5771 5770 5769 5768 5766 5765 5764 5763 5763 5762 5761 5760 5759 5758
5789 5788 5788 5787 5787 5786 5786 5785 5784 5783 5781 5780 5779 5778 5776 5775 5775 5774 5773 5772 5770 5769 5768 5767 5765 5764 5763 5762 5761 5759 5758 5757 5756 5755 5754 5753 5752 5751
5785 5784 5783 5783 5782 5781 5780 5779 5778 5777 5775 5774 5773 5772 5770 5769 5768 5767 5766 5766 5764 5763 5762 5761 5760 5758 5758 5757 5755 5753 5752 5751 5750 5749 5748 5747 5745 5744
5780 5779 5778 5778 5777 5775 5774 5774 5772 5771 5769 5768 5767 5766 5764 5763 5762 5761 5760 5759 5758 5757 5756 5754 5753 5752 5751 5750 5749 5747 5746 5745 5743 5742 5741 5739 5738 5737
5775 5774 5773 5772 5771 5770 5769 5768 5766 5765 5764 5762 5761 5760 5759 5757 5756 5755 5754 5753 5752 5751 5749 5748 5747 5745 5744 5743 5742 5740 5739 5737 5736 5734 5733 5731 5730 5728
5769 5768 5767 5766 5765 5764 5763 5761 5760 5759 5757 5756 5755 5753 5752 5751 5750 5749 5747 5746 5745 5743 5742 5741 5739 5738 5737 5735 5734 5733 5731 5729 5727 5726 5724 5723 5721 5720
5763 5762 5761 5760 5759 5758 5756 5755 5753 5752 5750 5749 5748 5747 5746 5745 5743 5742 5740 5739 5738 5736 5734 5733 5731 5730 5729 5728 5726 5724 5723 5721 5720 5718 5716 5715 5713 5712
5757 5756 5755 5754 5753 5751 5750 5748 5747 5745 5743 5742 5741 5740 5739 5737 5736 5734 5733 5731 5730 5729 5727 5726 5724 5722 5721 5720 5718 5716 5715 5713 5711 5710 5708 5707 5705 5703
5750 5749 5748 5747 5745 5744 5743 5741 5739 5738 5736 5735 5734 5732 5731 5730 5728 5727 5725 5724 5722 5721 5719 5718 5716 5715 5713 5712 5710 5708 5707 5705 5703 5701 5699 5698 5696 5695
5743 5742 5741 5739 5738 5737 5735 5733 5732 5730 5729 5727 5726 5725 5723 5722 5720 5719 5717 5716 5714 5713 5712 5710 5708 5707 5705 5704 5703 5700 5698 5696 5694 5692 5691 5689 5688 5686
5735 5734 5732 5731 5730 5729 5727 5726 5724 5722 5721 5720 5718 5717 5715 5714 5713 5711 5709 5708 5707 5705 5704 5702 5700 5699 5697 5696 5694 5693 5690 5688 5686 5684 5682 5681 5679 5677
5727 5725 5724 5722 5721 5720 5719 5718 5716 5714 5713 5711 5710 5709 5707 5706 5705 5703 5702 5700 5699 5697 5696 5694 5692 5691 5689 5687 5686 5684 5682 5680 5678 5676 5674 5672 5671 5669
5717 5716 5715 5713 5712 5711 5710 5709 5707 5706 5705 5704 5702 5701 5699 5698 5697 5695 5694 5692 5691 5689 5687 5686 5684 5683 5681 5679 5678 5676 5675 5672 5670 5668 5666 5665 5663 5661
5708 5706 5705 5703 5702 5701 5700 5700 5699 5698 5697 5696 5694 5693 5692 5690 5689 5687 5686 5684 5683 5681 5679 5678 5676 5674 5673 5671 5670 5668 5667 5665 5663 5661 5659 5657 5655 5653